STARLINK-11080, 60727

Orbit data source: Space-Track

STARLINK-11080, 60727 is a payload satellite owned by SpaceX/Seattle (US) in LEO that was launched on Wed, 28 Aug 2024 UTC via an FALCON 9 launch vehicle from the Air Force Eastern Test Range (AFETR). Payload-class satellites include a variety of spacecraft equipped with specific instruments for various scientific and technological missions. These include communications satellites like Starlink; space stations such as the ISS; scientific satellites like the Hubble; Earth observation satellites from companies like Planet Labs, Umbra, and HawkEye 360; GPS; miniature CubeSats for education and research; and military/defense satellites.

Loading next visibility...
Identifier
60727, 2024-152H
Orbit
LEO
Country
Flag of USUS
Related business
Manufacturer
SpaceX/Seattle
Mission
Operational Commercial Communications
Bus & Motor
STARLINK V2MD, Unknown motor
Mass
960 kg wet, ~910 kg dry
Launch date (UTC)
2024-08-28 (1 year ago)
Launch vehicle
FALCON 9
Launch site
Air Force Eastern Test Range (AFETR)
Object type
Payload
Rocket body
Debris
Shape & HBR
Box + 2 Pan, 18.1 m
Radar Cross Section
36.964 m², Large (>1 m²)

Expand to show TLE details & history
Last TLE update: 1 day ago

TLE from 1 day ago
0 STARLINK-11080
1 60727U 24152H   25302.57854371 -.00004078  00000-0 -28829-4 0  9992
2 60727  53.1576  42.5089 0001362  57.2143 302.9006 15.69697299 68370
Epoch: 2025-10-29T13:53Z
TLE epoch observation values (Epoch: 2025-10-29T13:53:06.176Z)
Latitude
-0.00002°
Longitude
156.08348°
Altitude
360.18 km
Speed
7.695 km/s
True Right ascension
02h 50m 02s
True Declination
0° 00' 00"
Sunlit
Object was in full shadow at epoch
Visualization orbit readout
Latitude
Unknown
Longitude
Unknown
Altitude
Unknown
Speed
Unknown
Apparent Right ascension
Unknown
Apparent Declination
Unknown
Sunlit
N/A
Visualization observer readout
Local Sidereal Time
20:05:54
Azimuth
Unknown
Elevation
Unknown
Doppler factor
Unknown
Orbital elements
Apogee altitude
360.942 km
Perigee altitude
359.106 km
Semi-major axis
6,738.161 km
Eccentricity
0.00014
Inclination
53.1576°
RAAN
42.5089°
Arg. of periapsis
57.2143°
True anomaly
302.88749°
Mean anomaly
302.9006°
Eccentric anomaly
302.89405°
Mean motion
3.92402 °/min
Orbital period
91.74 mins
BSTAR
-0.000028829
Loading maneuver chart data...
Computing Atmospheric mass density...
Loading historical data...
Loading historical data...
Loading historical data...
Loading historical data...
Loading historical data...
Loading historical data...
Loading historical data...

Documentation

Showing up to 5 results
|